Location: Shannon
(40.5500°S, 175.4167°E)
Time: 19:52:00
(UTC+00:00)

ALOS 2 - Pass Details

Date: 17 November 2025
Orbit: 630 x 632 km, 97.9° (Epoch: 15 December)

Event Time Altitude Azimuth Distance (km) Brightness Sun altitude
Rises 12:03:55 0° 159° (SSE) 2,965 7.0 -30.3°
Reaches altitude 10° 12:06:18 10° 150° (SSE) 2,048 5.9 -30.3°
Enters shadow 12:08:44 27° 127° (SE) 1,245 4.4 -30.3°
